Location: Kelshall
(52.0000°N, 0.0500°W)
Time: 06:25:24
(UTC+00:00)

Okean 1 Rocket - Pass Details

Date: 16 January 2021
Orbit: 605 x 635 km, 82.5° (Epoch: 02 March)

Event Time Altitude Azimuth Distance (km) Brightness Sun altitude
Exits shadow 04:56:06 52° 130° (SE) 797 3.7 -27.6°
Maximum altitude 04:56:43 57° 96° (E) 752 3.6 -27.5°
Drops below altitude 10° 05:01:08 10° 18° (NNE) 2,031 5.9 -26.8°
Sets 05:03:24 0° 14° (NNE) 2,941 6.7 -26.5°
